Date,TemperatureHighF,TemperatureAvgF,TemperatureLowF,DewpointHighF,DewpointAvgF,DewpointLowF,HumidityHigh,HumidityAvg,HumidityLow,PressureMaxIn,PressureMinIn,WindSpeedMaxMPH,WindSpeedAvgMPH,GustSpeedMaxMPH,PrecipitationSumIn
2013-1-1,40,36,27,32,27,16,84,68,54,29.92,29.74,20,4,20,0.00
2013-1-2,35,28,23,18,15,12,69,59,47,30.08,29.90,17,3,17,0.00
2013-1-3,34,28,23,20,18,16,76,64,51,30.09,29.97,14,3,14,0.00
2013-1-4,37,33,28,24,23,20,75,65,57,29.99,29.85,21,5,21,0.00
2013-1-5,44,36,30,25,23,20,76,61,45,30.19,29.92,20,3,20,0.00
2013-1-6,48,39,32,34,30,24,94,71,50,30.12,29.86,15,2,15,0.00
2013-1-7,47,38,29,32,27,23,86,66,44,30.29,29.96,15,2,15,0.00
2013-1-8,50,36,23,35,29,21,95,77,52,30.31,30.23,15,1,15,0.00
2013-1-9,49,40,28,40,34,26,95,81,70,30.29,30.03,16,2,16,0.00
2013-1-10,50,42,35,35,28,26,74,58,40,30.44,30.14,17,3,17,0.00
2013-1-11,46,40,34,45,35,26,98,82,67,30.43,29.98,10,1,10,0.40
2013-1-12,49,46,42,47,45,42,99,96,89,30.06,29.97,5,1,5,0.00
2013-1-13,49,46,44,48,46,43,99,98,96,30.05,29.90,5,0,5,0.02
2013-1-14,57,50,39,54,44,30,100,84,49,30.19,29.79,12,2,12,0.09
2013-1-15,39,37,35,36,31,28,93,78,66,30.24,30.09,10,1,10,0.14
2013-1-16,36,34,32,35,33,31,98,96,90,30.10,29.69,12,2,12,0.74
2013-1-17,44,39,36,35,31,26,94,72,58,29.99,29.81,17,3,17,0.00
2013-1-18,36,29,25,27,14,6,72,54,34,30.37,29.89,22,4,22,0.00
2013-1-19,51,39,25,31,26,13,78,59,42,30.30,29.83,22,4,22,0.00
2013-1-20,54,42,30,33,24,13,81,52,25,29.95,29.60,32,6,32,0.00
2013-1-21,30,26,22,14,12,9,69,55,47,29.99,29.95,10,2,10,0.00
2013-1-24,20,18,16,2,1,0,50,47,42,30.32,30.25,19,5,19,0.00
2013-1-25,23,17,11,16,6,-2,93,65,45,30.33,29.97,13,2,13,0.00
2013-1-26,28,20,12,13,10,7,92,67,43,30.30,29.96,21,3,21,0.00
2013-1-27,36,25,16,15,12,8,74,59,38,30.43,30.30,15,2,15,0.00
2013-1-28,34,30,21,34,26,14,96,85,64,30.40,29.91,10,2,10,0.13
2013-1-29,56,42,34,45,40,33,97,91,67,30.04,29.91,13,2,13,0.00
2013-1-30,68,53,41,61,51,40,100,93,77,29.97,29.23,25,2,25,0.03
2013-1-31,62,45,28,60,32,12,97,64,38,29.71,28.93,36,10,36,1.05